"Pseudo-MPEC" for ZTF02V1

Created 2019 Feb 20 14:18:07 UT using Find_Orb

Click here for an explanation of pseudo-MPECs

 
 Astrometry: 
     ZTF02V1  C2019 02 08.28216 09 22 27.96 +05 24 52.7    ~292I 21.1 rUNEOCPI41
     ZTF02V1  C2019 02 08.29713 09 22 28.37 +05 24 53.0    ~292I 21.1 rUNEOCPI41
     ZTF02V1  C2019 02 08.30318 09 22 28.56 +05 24 52.5    ~292I 20.7 rUNEOCPI41
     ZTF02V1  C2019 02 08.36985 09 22 30.34 +05 24 53.0    ~292I 20.8 rUNEOCPI41

Station data:
(I41) Palomar Mountain--ZTF  (N33.357340 W116.859780)  US/California. 1.2-m
   f/2.44 Oschin Schmidt + CCD.

Orbital elements:  ZTF02V1
   Perihelion 2019 Mar 4.911267 +/- 41.7 TT = 21:52:13 (JD 2458547.411267)
Epoch 2019 Feb  8.0 TT = JDT 2458522.5   Earth MOID: 0.2705   Ma: 0.0431
M 353.11859714 +/- 15               (J2000 ecliptic)          AutoNEOCP
n   0.27623656 +/- 0.248            Peri.  329.46656 +/- 90
a   2.33497340 +/- 1.39             Node   190.44494 +/- 52
e   0.4603005 +/- 0.244             Incl.    2.86063 +/- 1.5
P   3.57                   H 22.7   G  0.15   U 11.8  SR
q 1.26018392 +/- 0.286    Q 3.40976289 +/- 60.9
From 4 observations 2019 Feb. 8 (2.1 hr); mean residual 0".18
Residuals in arcseconds: 
190208 I41  .13-  .03+    190208 I41  .28+  .29-    
190208 I41  .11-  .24+    190208 I41  .05-  .03+    

Ephemerides (geocentric):
Date (UTC) HH   RA              Dec         delta   r     elong  mag " sig PA
---- -- -- --  -------------   -----------  ------ ------ -----  --- ---- ---
2019 02 20 14  09 31 29.636   +05 47 07.98  .28249 1.2667 168.4 21.1  53d   2
2019 02 20 15  09 31 31.846   +05 47 16.19  .28245 1.2666 168.3 21.1  54d   3
2019 02 20 16  09 31 34.060   +05 47 24.42  .28241 1.2666 168.3 21.1  54d   3
2019 02 20 17  09 31 36.277   +05 47 32.67  .28238 1.2665 168.3 21.1  54d   3
2019 02 20 18  09 31 38.496   +05 47 40.94  .28234 1.2665 168.3 21.1  54d   3
2019 02 20 19  09 31 40.719   +05 47 49.22  .28230 1.2665 168.3 21.1  54d   3
2019 02 20 20  09 31 42.945   +05 47 57.53  .28226 1.2664 168.2 21.1  54d   3
2019 02 20 21  09 31 45.173   +05 48 05.86  .28223 1.2664 168.2 21.1  54d   3
2019 02 20 22  09 31 47.405   +05 48 14.20  .28219 1.2663 168.2 21.1  54d   3
2019 02 20 23  09 31 49.639   +05 48 22.57  .28216 1.2663 168.2 21.1  54d   3
2019 02 21 00  09 31 51.877   +05 48 30.95  .28212 1.2662 168.2 21.1  54d   3
2019 02 21 01  09 31 54.117   +05 48 39.36  .28208 1.2662 168.1 21.1  54d   3
2019 02 21 02  09 31 56.361   +05 48 47.78  .28205 1.2662 168.1 21.1  54d   3
2019 02 21 03  09 31 58.608   +05 48 56.23  .28201 1.2661 168.1 21.1  55d   3
2019 02 21 04  09 32 00.857   +05 49 04.69  .28198 1.2661 168.1 21.1  55d   3
2019 02 21 05  09 32 03.110   +05 49 13.17  .28194 1.2660 168.1 21.1  55d   3
2019 02 21 06  09 32 05.365   +05 49 21.67  .28191 1.2660 168.0 21.1  55d   3
2019 02 21 07  09 32 07.624   +05 49 30.20  .28187 1.2660 168.0 21.1  55d   3
2019 02 21 08  09 32 09.885   +05 49 38.74  .28184 1.2659 168.0 21.1  55d   3
2019 02 21 09  09 32 12.150   +05 49 47.29  .28181 1.2659 168.0 21.1  55d   3
2019 02 21 10  09 32 14.418   +05 49 55.87  .28177 1.2658 168.0 21.1  55d   3
2019 02 21 11  09 32 16.688   +05 50 04.47  .28174 1.2658 167.9 21.1  55d   3
2019 02 21 12  09 32 18.962   +05 50 13.08  .28170 1.2657 167.9 21.1  55d   3
2019 02 21 13  09 32 21.239   +05 50 21.72  .28167 1.2657 167.9 21.1  55d   3
2019 02 21 14  09 32 23.519   +05 50 30.37  .28164 1.2657 167.9 21.1  55d   3
2019 02 21 15  09 32 25.801   +05 50 39.04  .28161 1.2656 167.9 21.1  55d   3
2019 02 21 16  09 32 28.087   +05 50 47.73  .28157 1.2656 167.8 21.1  55d   3
2019 02 21 17  09 32 30.376   +05 50 56.44  .28154 1.2655 167.8 21.1  55d   3
2019 02 21 18  09 32 32.668   +05 51 05.17  .28151 1.2655 167.8 21.1  55d   3
2019 02 21 19  09 32 34.963   +05 51 13.91  .28148 1.2655 167.8 21.1  55d   3
2019 02 21 20  09 32 37.261   +05 51 22.67  .28144 1.2654 167.7 21.1  55d   3
2019 02 21 21  09 32 39.563   +05 51 31.46  .28141 1.2654 167.7 21.1  55d   3
2019 02 21 22  09 32 41.867   +05 51 40.26  .28138 1.2654 167.7 21.1  55d   3
2019 02 21 23  09 32 44.174   +05 51 49.07  .28135 1.2653 167.7 21.1  55d   3
2019 02 22 00  09 32 46.484   +05 51 57.91  .28132 1.2653 167.7 21.1  55d   3
2019 02 22 01  09 32 48.798   +05 52 06.76  .28129 1.2652 167.6 21.1  55d   3
2019 02 22 02  09 32 51.114   +05 52 15.64  .28126 1.2652 167.6 21.1  55d   3
2019 02 22 03  09 32 53.434   +05 52 24.53  .28123 1.2652 167.6 21.1  55d   3
2019 02 22 04  09 32 55.757   +05 52 33.43  .28120 1.2651 167.6 21.1  55d   3
2019 02 22 05  09 32 58.083   +05 52 42.36  .28117 1.2651 167.6 21.1  55d   3
2019 02 22 06  09 33 00.411   +05 52 51.30  .28114 1.2650 167.5 21.1  55d   3
2019 02 22 07  09 33 02.743   +05 53 00.26  .28111 1.2650 167.5 21.1  55d   3
2019 02 22 08  09 33 05.079   +05 53 09.24  .28108 1.2650 167.5 21.1  55d   3
2019 02 22 09  09 33 07.417   +05 53 18.24  .28105 1.2649 167.5 21.1  55d   3
2019 02 22 10  09 33 09.758   +05 53 27.25  .28102 1.2649 167.4 21.1  56d   3
2019 02 22 11  09 33 12.102   +05 53 36.28  .28099 1.2649 167.4 21.1  56d   3
2019 02 22 12  09 33 14.450   +05 53 45.33  .28096 1.2648 167.4 21.1  56d   3
2019 02 22 13  09 33 16.801   +05 53 54.40  .28093 1.2648 167.4 21.1  56d   3